Regional Weather Roundup
Issued by NWS

Home | Current Version | Previous Version | Graphics & Text | Print | Product List | Glossary On
Versions: 1 2 3 4 5 6 7 8 9 10 11 12 13 14 15 16 17 18 19 20 21 22 23 24 25 26 27 28 29 30 31 32 33 34 35 36 37 38 39 40 41 42 43 44 45 46 47 48 49
000
ASUS45 KBOU 291307
RWRCO

WEATHER ROUNDUP FOR COLORADO
NATIONAL WEATHER SERVICE DENVER/BOULDER CO
700 AM MDT SAT AUG 29 2015

NOTE: "FAIR" INDICATES FEW OR NO CLOUDS BELOW 12000 FEET WITH NO
SIGNIFICANT WEATHER AND/OR OBSTRUCTIONS TO VISIBILITY.

COZ001>005-013-030-031-291400-
...NORTHWEST COLORADO...

CITY           SKY/WX    TMP DP  RH WIND       PRES   REMARKS
CRAIG          CLEAR     43  39  86 CALM      30.32R
HAYDEN         NOT AVBL
MEEKER         CLEAR     45  39  79 NE3       30.33S
MOUNT WERNER   NOT AVBL
STEAMBOAT SPGS CLEAR     44  40  88 CALM      30.37S
WALDEN         CLEAR     36  34  93 SE5       30.46R
$$

COZ006>008-011-291400-
...WEST CENTRAL VALLEYS...

CITY           SKY/WX    TMP DP  RH WIND       PRES   REMARKS
GRAND JUNCTION CLEAR     60  45  57 S7        30.21R
MONTROSE       CLEAR     53  45  74 S6        30.30R
EAGLE          CLEAR     45  41  87 CALM      30.43R
RIFLE          CLEAR     51  45  79 SE3       30.29R
DELTA          RAIN      57  49  76 CALM      30.27R
NUCLA          CLEAR     54  41  62 E6        30.32R
$$

COZ017>023-064>068-291400-
...SOUTHWEST COLORADO...

CITY           SKY/WX    TMP DP  RH WIND       PRES   REMARKS
DURANGO        CLEAR     52  44  74 CALM      30.37R
CORTEZ         CLEAR     53  45  74 E3        30.28R
PAGOSA SPRINGS PTCLDY    51  42  72 CALM      30.45R
TELLURIDE      PTCLDY    56  40  54 CALM      30.53R
WOLF CREEK PAS PTCLDY    43  36  75 SW9       30.74S
$$

COZ009-010-012-014-032>034-037-058>063-291400-
...CENTRAL COLORADO...

CITY           SKY/WX    TMP DP  RH WIND       PRES   REMARKS
ASPEN          CLEAR     44  40  85 CALM      30.42S
BUENA VISTA    CLEAR     47  39  73 N5        30.49R
COPPER MTN     CLEAR     48  34  57 S16G22    30.72R
BERTHOUD PASS  FAIR      39  28  65 W8        30.76R
COTTONWOOD PAS CLEAR     54  37  54 W6        30.59R
GUNNISON       PTCLDY    43  37  81 CALM      30.49R
KREMMLING      PTCLDY    37  36  93 CALM      30.48R
LEADVILLE      CLEAR     34  33  96 CALM      30.58R
MONARCH PASS   CLEAR     43  36  75 SW13      30.81S
SALIDA         CLEAR     50  42  72 W3        30.54R
SUNLIGHT       CLEAR     50  37  62 CALM      30.64S
WILKERSON PASS CLEAR     45  36  70 SW7       30.69S
$$

COZ069>075-291400-
...SAN LUIS VALLEY/SANGRE DE CRISTO MOUNTAINS...

CITY           SKY/WX    TMP DP  RH WIND       PRES   REMARKS
ALAMOSA        CLEAR     45  40  82 CALM      30.44R
LA VETA PASS   CLEAR     50  36  57 MISG      30.61R
SAGUACHE       CLEAR     48  41  76 NW10      30.47R
$$

COZ035-036-038>040-291400-
...NORTHERN COLORADO FRONT RANGE...

CITY           SKY/WX    TMP DP  RH WIND       PRES   REMARKS
DENVER INTL AP CLEAR     57  40  52 S8        30.27R
DMNS CITY PARK   N/A     61  45  55 SE8       30.26S
AURORA         PTCLDY    59  42  53 S8        30.29R
FRONT RANGE AP CLEAR     57  41  54 S9        30.28
ERIE MUNI ARPT CLEAR     52  47  83 CALM      30.25S
BOULDER MUN AP CLEAR     57  46  67 CALM      30.25S
CENTENNIAL     PTCLDY    57  44  62 S7        30.30R
BROOMFIELD     PTCLDY    61  43  51 CALM      30.28S
FORT COLLINS   CLEAR     55  46  71 N5        30.26R
LONGMONT       CLEAR     53  46  78 CALM      30.26S
$$

COZ041-046-047-076>085-087-088-291400-
...PIKES PEAK/PALMER DIVIDE AND SOUTHERN FOOTHILLS...

CITY           SKY/WX    TMP DP  RH WIND       PRES   REMARKS
COLO. SPRINGS  CLEAR     53  43  68 NE8       30.35R
A. F. ACADEMY  CLEAR     50  43  78 N10       30.36S
ELLICOTT       CLEAR    N/A N/A N/A CALM      30.33S
FALCON         CLEAR     51  45  78 MISG      30.40R
FORT CARSON    CLEAR     56  45  66 N10       30.32R
LIMON          CLEAR     47  45  93 N5        30.30R
MONUMENT HILL  CLEAR     50  41  71 S9        30.39S
TRINIDAD       CLEAR     56  46  69 W9        30.32R
$$

COZ042>045-048>051-090-091-291400-
...NORTHEAST COLORADO...

CITY           SKY/WX    TMP DP  RH WIND       PRES   REMARKS
GREELEY ARPT   CLEAR     50  46  87 CALM      30.25R
AKRON          CLEAR     59  42  53 W12       30.23R
BURLINGTON     CLEAR     55  51  86 W8        30.23R
WRAY           CLEAR     53  50  90 W5        30.19S
STERLING       CLEAR     48  46  93 SW3       30.20R
HOLYOKE        CLEAR     55  52  88 W5        30.19R
FORT MORGAN    CLEAR     50  45  82 W9        30.23S
$$

COZ086-089-092>099-291400-
...SOUTHEAST COLORADO...

CITY           SKY/WX    TMP DP  RH WIND       PRES   REMARKS
PUEBLO         CLEAR     56  46  69 CALM      30.26R
LA JUNTA       CLEAR     60  50  69 CALM      30.24R
LAMAR          CLEAR     52  51  97 SW6       30.20R FOG
SPRINGFIELD    NOT AVBL
$$



USA.gov is the U.S. government's official web portal to all federal, state and local government web resources and services.